Flag for Canada Weather past 2 weeks in Wood Buffalo, Alberta, Canada

Now
40 °F

Chilly.


Feels Like: 35 °F
Forecast: 22 / 34 °F
Wind: 7 mph from West

Location: Fort McMurray CS

Current Time: Jan 26, 2015 at 4:31:29 PM

Latest Report: Jan 26, 2015 at 3:00 PM


Visibility: N/A

Pressure: 29.74 "Hg

Humidity: 66%

Dew point: 29 °F

Location of Wood BuffaloLocation

Historic Weather in Wood Buffalo — Graph

°F

Wood Buffalo temperature yesterday

Maximum temperature yesterday: 42 °F (at 6:00 PM)
Minimum temperature yesterday: 31 °F (at 12:00 AM)
Average temperature yesterday: 38 °F

Past Weeks' High & Low Weather Summary

 TemperatureHumidityPressure
High42 °F (Jan 22, 7:00 PM)100% (Jan 19, 9:00 AM)30.48 "Hg (Jan 19, 9:00 AM)
Low-10 °F (Jan 12, 5:00 AM)53% (Jan 21, 1:00 PM)29.29 "Hg (Jan 16, 1:00 PM)
Average21 °F87%29.84 "Hg
* Reported Jan 11 3:00 PM — Jan 26 3:00 PM, Wood Buffalo, Weather by CustomWeather, © 2014

Note: Actual official high and low records may vary slightly from our data, if they occured in-between our weather recording intervals... More about our weather records

Advertising

Wood Buffalo weather history for previous 24 hours

 ConditionsComfort  
Time TempWeatherWind HumidityBarometerVisibility
3:00 PM
Jan 26
40 °FChilly.7 mph66%29.74 "HgN/A
2:00 PM39 °FChilly.7 mph67%29.73 "HgN/A
1:00 PM38 °FChilly.9 mph71%29.73 "HgN/A
12:00 PM37 °FChilly.10 mph73%29.74 "HgN/A
11:00 AM34 °FChilly.10 mph80%29.75 "HgN/A
10:00 AM33 °FChilly.7 mph80%29.74 "HgN/A
9:00 AM33 °FChilly.7 mph80%29.73 "HgN/A
8:00 AM31 °FChilly.10 mph87%29.72 "HgN/A
7:00 AM30 °FChilly.3 mph88%29.73 "HgN/A
6:00 AM33 °FChilly.10 mph83%29.71 "HgN/A
5:00 AM31 °FChilly.7 mph87%29.71 "HgN/A
4:00 AM31 °FChilly.2 mph87%29.72 "HgN/A
3:00 AM31 °FChilly.3 mph87%29.72 "HgN/A
2:00 AM32 °FChilly.8 mph87%29.72 "HgN/A
1:00 AM31 °FChilly.7 mph91%29.72 "HgN/A
12:00 AM33 °FChilly.7 mph88%29.71 "HgN/A
11:00 PM
Jan 25
34 °FChilly.7 mph91%29.71 "HgN/A
10:00 PM38 °FChilly.8 mph75%29.70 "HgN/A
9:00 PM40 °FQuite cool.7 mph82%29.69 "HgN/A
8:00 PM40 °FChilly.10 mph81%29.68 "HgN/A
7:00 PM40 °FChilly.10 mph78%29.66 "HgN/A
6:00 PM42 °FQuite cool.13 mph77%29.62 "HgN/A
5:00 PM41 °FQuite cool.13 mph77%29.59 "HgN/A
4:00 PM42 °FQuite cool.13 mph76%29.56 "HgN/A
Weather by CustomWeather, © 2014

See weather overviewHow to use our weather pages